Location: Barrio Las Umbrías
(40.4173°N, 4.8685°W)
Time: 13:35:45
(UTC+00:00)

SPOT 5 - Pass Details

Date: 17 August 2022
Orbit: 622 x 814 km, 98.2° (Epoch: 28 September)

Event Time Altitude Azimuth Distance (km) Brightness Sun altitude
Exits shadow 22:18:19 49° 265° (W) 968 3.6 -29.0°
Drops below altitude 10° 22:23:13 10° 336° (NNW) 2,336 6.4 -29.6°
Sets 22:25:41 0° 342° (NNW) 3,291 7.4 -29.8°
